This demonstration page uses our WeatherBlox Daily Observations layout. Learn more.

Left ArrowRight Arrow

36.17497, -115.13722

Hourly Observations for March 1, 2016

Temp ( °F °C ) Dew Point ( °F °C ) Humidity (%) Winds ( mph kmh ) Pressure ( in mb ) Visibility ( mi km ) Precip ( " mm )
12:53 am 00:53 Clear 61 16.1 25 -3.9 25 25 WNW 8 13 30.07 1018 10 16.0934 0 0
1:53 am 01:53 Clear 59 15 23 -5 25 25 NNW 7 11 30.07 1018 10 16.0934 0 0
2:53 am 02:53 Clear 60 15.6 22 -5.6 23 23 NNE 6 9 30.08 1019 10 16.0934 0 0
3:53 am 03:53 Clear 60 15.6 20 -6.7 21 21 NNW 10 17 30.09 1019 10 16.0934 0 0
4:53 am 04:53 Clear 56 13.3 21 -6.1 26 26 NNW 3 6 30.12 1020 10 16.0934 0 0
5:53 am 05:53 Clear 57 13.9 23 -5 27 27 NW 8 13 30.13 1020 10 16.0934 0 0
6:53 am 06:53 Sunny 57 13.9 22 -5.6 26 26 NNW 8 13 30.15 1021 10 16.0934 0 0
7:53 am 07:53 Sunny 60 15.6 26 -3.3 27 27 Calm 30.17 1022 10 16.0934 0 0
8:53 am 08:53 Sunny 65 18.3 26 -3.3 23 23 Calm 30.17 1022 10 16.0934 0 0
9:53 am 09:53 Sunny 68 20 23 -5 18 18 ESE 3 6 30.17 1022 10 16.0934 0 0
10:53 am 10:53 Sunny 69 20.6 23 -5 17 17 SSE 5 7 30.15 1021 10 16.0934 0 0
11:53 am 11:53 Sunny 72 22.2 23 -5 16 16 SE 5 7 30.12 1020 10 16.0934 0 0
12:53 pm 12:53 Sunny 74 23.3 22 -5.6 14 14 ESE 7 11 30.09 1019 10 16.0934 0 0
1:53 pm 13:53 Sunny 75 23.9 24 -4.4 15 15 S 5 7 30.06 1018 10 16.0934 0 0
2:53 pm 14:53 Sunny 77 25 24 -4.4 14 14 S 7 11 30.03 1017 10 16.0934 0 0
3:53 pm 15:53 Sunny 78 25.6 25 -3.9 14 14 SE 5 7 30.02 1017 10 16.0934 0 0
4:53 pm 16:53 Sunny 78 25.6 25 -3.9 14 14 SE 7 11 30.02 1017 10 16.0934 0 0
5:53 pm 17:53 Clear 75 23.9 25 -3.9 15 15 NE 3 6 30.03 1017 10 16.0934 0 0
6:53 pm 18:53 Clear 71 21.7 26 -3.3 19 19 E 6 9 30.02 1017 10 16.0934 0 0
7:53 pm 19:53 Clear 66 18.9 26 -3.3 22 22 NW 6 9 30.03 1017 10 16.0934 0 0
8:53 pm 20:53 Clear 64 17.8 29 -1.7 27 27 NNW 5 7 30.04 1017 10 16.0934 0 0
9:53 pm 21:53 Clear 61 16.1 28 -2.2 29 29 N 5 7 30.02 1017 10 16.0934 0 0
10:53 pm 22:53 Clear 60 15.6 28 -2.2 30 30 N 7 11 30 1016 10 16.0934 0 0
11:53 pm 23:53 Clear 61 16.1 28 -2.2 29 29 WNW 7 11 30 1016 10 16.0934 0 0

Powered by AerisWeather